StationID,Date,MaxTemp,MinTemp,Precipitation,Snowfall,SnowDepth
"SWE00140622","2008-10-27",44.06,34.70,,,
"SWE00140622","2008-10-28",42.98,29.84,25.00,,
"SWE00140622","2008-10-29",,,0.00,,
"SWE00140622","2008-10-30",39.92,,,,
"SWE00140622","2008-10-31",30.02,25.88,0.00,,
"SWE00140622","2008-11-01",29.66,13.82,0.00,,
"SWE00140622","2008-11-02",38.84,20.66,9.00,,
"SWE00140622","2008-11-03",37.40,26.06,10.00,,
"SWE00140622","2008-11-04",42.26,22.82,0.00,,
"SWE00140622","2008-11-05",39.38,28.40,0.00,,
"SWE00140622","2008-11-06",39.02,14.36,0.00,,
"SWE00140622","2008-11-07",39.20,24.44,0.00,,
"SWE00140622","2008-11-08",39.20,28.76,12.00,,
"SWE00140622","2008-11-09",39.74,35.96,69.00,,
"SWE00140622","2008-11-10",41.54,37.58,42.00,,
"SWE00140622","2008-11-11",41.18,36.32,19.00,,
"SWE00140622","2008-11-12",37.22,28.94,17.00,,
"SWE00140622","2008-11-13",32.72,13.10,0.00,,
"SWE00140622","2008-11-14",36.50,6.98,42.00,,
"SWE00140622","2008-11-15",35.60,15.44,0.00,,
"SWE00140622","2008-11-16",25.16,13.10,0.00,,
"SWE00140622","2008-11-17",28.04,8.24,17.00,,
"SWE00140622","2008-11-18",39.38,27.50,13.00,,
"SWE00140622","2008-11-19",35.24,19.22,0.00,,
"SWE00140622","2008-11-20",24.26,10.40,0.00,,
"SWE00140622","2008-11-21",20.66,7.70,0.00,,
"SWE00140622","2008-11-22",16.88,8.06,0.00,,
"SWE00140622","2008-11-23",26.06,13.82,48.00,,
"SWE00140622","2008-11-24",31.46,26.06,4.00,,
"SWE00140622","2008-11-25",26.96,22.28,12.00,,
"SWE00140622","2008-11-26",30.92,14.18,47.00,,
"SWE00140622","2008-11-27",24.80,4.46,41.00,,
"SWE00140622","2008-11-28",26.24,14.36,4.00,,
"SWE00140622","2008-11-29",20.48,5.18,1.00,,
"SWE00140622","2008-11-30",32.18,15.62,89.00,,
"SWE00140622","2008-12-01",36.50,29.66,2.00,,
"SWE00140622","2008-12-02",30.56,26.60,10.00,,
"SWE00140622","2008-12-03",35.60,27.68,69.00,,
"SWE00140622","2008-12-04",35.96,32.90,0.00,,
"SWE00140622","2008-12-05",33.08,25.34,1.00,,
"SWE00140622","2008-12-06",26.78,20.84,6.00,,
"SWE00140622","2008-12-07",30.38,4.10,3.00,,
"SWE00140622","2008-12-08",31.46,3.56,65.00,,
"SWE00140622","2008-12-09",32.72,10.94,1.00,,
"SWE00140622","2008-12-10",19.22,11.12,0.00,,
"SWE00140622","2008-12-11",24.62,16.34,0.00,,
"SWE00140622","2008-12-12",30.92,19.40,51.00,,
"SWE00140622","2008-12-13",34.16,30.92,60.00,,
"SWE00140622","2008-12-14",33.98,25.34,0.00,,
"SWE00140622","2008-12-15",34.16,26.78,0.00,,
"SWE00140622","2008-12-16",32.54,26.96,13.00,,
"SWE00140622","2008-12-17",33.62,30.92,50.00,,
"SWE00140622","2008-12-18",35.42,32.18,51.00,,
"SWE00140622","2008-12-19",37.76,33.80,0.00,,
"SWE00140622","2008-12-20",35.42,30.20,3.00,,
"SWE00140622","2008-12-21",33.26,21.20,10.00,,
"SWE00140622","2008-12-22",31.10,16.70,1.00,,
"SWE00140622","2008-12-23",25.34,21.02,0.00,,
"SWE00140622","2008-12-24",24.26,19.76,0.00,,
"SWE00140622","2008-12-25",33.26,22.64,0.00,,
"SWE00140622","2008-12-26",39.92,29.48,0.00,,
"SWE00140622","2008-12-27",37.76,24.80,0.00,,
"SWE00140622","2008-12-28",37.58,23.36,0.00,,
"SWE00140622","2008-12-29",39.02,28.76,0.00,,
"SWE00140622","2008-12-30",32.36,27.68,0.00,,
"SWE00140622","2008-12-31",38.30,22.46,1.00,,
"SWE00140622","2009-01-01",24.08,2.30,0.00,,
"SWE00140622","2009-01-02",8.78,-0.22,0.00,,
"SWE00140622","2009-01-03",13.10,5.54,0.00,,
"SWE00140622","2009-01-04",10.76,2.66,0.00,,
"SWE00140622","2009-01-05",23.90,-1.84,4.00,,
"SWE00140622","2009-01-06",24.08,-1.12,0.00,,
"SWE00140622","2009-01-07",3.92,-10.66,0.00,,
"SWE00140622","2009-01-08",20.84,1.94,2.00,,
"SWE00140622","2009-01-09",23.00,12.38,0.00,,
"SWE00140622","2009-01-10",36.50,12.74,0.00,,
"SWE00140622","2009-01-11",35.60,30.38,25.00,,
"SWE00140622","2009-01-12",38.48,33.98,10.00,,
"SWE00140622","2009-01-13",36.86,14.90,1.00,,
"SWE00140622","2009-01-14",14.90,3.38,0.00,,
"SWE00140622","2009-01-15",3.74,-11.56,0.00,,
"SWE00140622","2009-01-16",23.72,-11.20,0.00,,
"SWE00140622","2009-01-17",30.20,23.54,0.00,,
"SWE00140622","2009-01-18",30.20,17.06,9.00,,
"SWE00140622","2009-01-19",18.14,14.90,13.00,,
"SWE00140622","2009-01-20",23.18,11.84,29.00,,
"SWE00140622","2009-01-21",26.96,23.18,17.00,,
"SWE00140622","2009-01-22",33.26,26.78,1.00,,
"SWE00140622","2009-01-23",30.92,23.54,0.00,,
"SWE00140622","2009-01-24",23.54,18.68,2.00,,
"SWE00140622","2009-01-25",23.54,11.48,0.00,,
"SWE00140622","2009-01-26",23.54,19.76,0.00,,
"SWE00140622","2009-01-27",22.10,20.12,19.00,,
"SWE00140622","2009-01-28",22.46,19.76,0.00,,
"SWE00140622","2009-01-29",22.64,18.68,0.00,,
"SWE00140622","2009-01-30",23.90,14.36,0.00,,
"SWE00140622","2009-01-31",29.12,14.90,2.00,,
"SWE00140622","2009-02-01",26.24,11.66,0.00,,
"SWE00140622","2009-02-02",23.54,5.00,0.00,,
"SWE00140622","2009-02-03",25.34,14.36,0.00,,
"SWE00140622","2009-02-04",25.34,18.32,38.00,,
"SWE00140622","2009-02-05",25.16,6.62,108.00,,
"SWE00140622","2009-02-06",6.62,-0.76,26.00,,
"SWE00140622","2009-02-07",6.08,-5.26,46.00,,
"SWE00140622","2009-02-08",14.72,5.54,104.00,,
"SWE00140622","2009-02-09",32.00,7.52,18.00,,
"SWE00140622","2009-02-10",23.54,-0.76,0.00,,
"SWE00140622","2009-02-11",24.98,8.42,0.00,,
"SWE00140622","2009-02-12",26.60,0.86,0.00,,
"SWE00140622","2009-02-13",25.52,16.16,6.00,,
"SWE00140622","2009-02-14",19.94,14.18,11.00,,
"SWE00140622","2009-02-15",16.70,1.94,4.00,,
"SWE00140622","2009-02-16",4.28,-11.56,1.00,,
"SWE00140622","2009-02-17",1.94,-9.04,0.00,,
"SWE00140622","2009-02-18",4.28,-7.60,1.00,,
"SWE00140622","2009-02-19",12.74,-4.72,14.00,,
"SWE00140622","2009-02-20",22.82,6.98,4.00,,
"SWE00140622","2009-02-21",23.90,19.58,3.00,,
"SWE00140622","2009-02-22",22.82,12.92,72.00,,
"SWE00140622","2009-02-23",25.52,18.68,69.00,,
"SWE00140622","2009-02-24",28.76,13.28,0.00,,
"SWE00140622","2009-02-25",28.76,13.64,0.00,,
"SWE00140622","2009-02-26",27.68,2.30,1.00,,
"SWE00140622","2009-02-27",15.62,-7.06,1.00,,
"SWE00140622","2009-02-28",20.84,7.34,0.00,,
"SWE00140622","2009-03-01",12.38,-8.32,0.00,,
"SWE00140622","2009-03-02",25.16,0.50,129.00,,
"SWE00140622","2009-03-03",25.88,23.54,3.00,,
"SWE00140622","2009-03-04",31.46,18.32,0.00,,
"SWE00140622","2009-03-05",33.26,15.08,0.00,,
"SWE00140622","2009-03-06",34.16,27.86,0.00,,
"SWE00140622","2009-03-07",32.18,23.36,0.00,,
"SWE00140622","2009-03-08",27.32,17.42,0.00,,
"SWE00140622","2009-03-09",28.94,21.56,0.00,,
"SWE00140622","2009-03-10",27.32,20.84,0.00,,
"SWE00140622","2009-03-11",23.36,16.34,0.00,,
"SWE00140622","2009-03-12",27.32,17.78,0.00,,
"SWE00140622","2009-03-13",32.72,27.32,0.00,,
"SWE00140622","2009-03-14",32.90,30.74,8.00,,
"SWE00140622","2009-03-15",33.98,30.92,0.00,,
"SWE00140622","2009-03-16",34.70,28.22,31.00,,
"SWE00140622","2009-03-17",33.98,17.42,0.00,,
"SWE00140622","2009-03-18",39.38,10.22,0.00,,
"SWE00140622","2009-03-19",31.46,13.28,12.00,,
"SWE00140622","2009-03-20",44.60,26.06,0.00,,
"SWE00140622","2009-03-21",37.22,23.36,0.00,,
"SWE00140622","2009-03-22",32.36,16.52,0.00,,
"SWE00140622","2009-03-23",27.50,10.94,0.00,,
"SWE00140622","2009-03-24",29.84,5.18,0.00,,
"SWE00140622","2009-03-25",25.16,4.28,0.00,,
"SWE00140622","2009-03-26",26.96,-1.30,0.00,,
"SWE00140622","2009-03-27",24.98,-10.12,0.00,,
"SWE00140622","2009-03-28",31.10,-4.18,1.00,,
"SWE00140622","2009-03-29",33.80,21.20,28.00,,
"SWE00140622","2009-03-30",31.10,24.80,32.00,,
"SWE00140622","2009-03-31",36.14,29.48,2.00,,
"SWE00140622","2009-04-01",41.54,20.66,0.00,,
"SWE00140622","2009-04-02",38.66,16.34,5.00,,
"SWE00140622","2009-04-03",33.08,23.90,0.00,,
"SWE00140622","2009-04-04",30.02,16.16,0.00,,
"SWE00140622","2009-04-05",34.16,7.88,0.00,,
"SWE00140622","2009-04-06",33.26,19.76,0.00,,
"SWE00140622","2009-04-07",34.52,8.24,0.00,,
"SWE00140622","2009-04-08",35.96,15.80,0.00,,
"SWE00140622","2009-04-09",37.94,25.34,14.00,,
"SWE00140622","2009-04-10",35.24,28.94,4.00,,
"SWE00140622","2009-04-11",31.46,19.22,0.00,,
"SWE00140622","2009-04-12",41.36,27.50,34.00,,
"SWE00140622","2009-04-13",41.00,32.18,0.00,,
"SWE00140622","2009-04-14",42.80,26.96,0.00,,
"SWE00140622","2009-04-15",39.56,21.38,0.00,,
"SWE00140622","2009-04-16",35.24,16.88,31.00,,
"SWE00140622","2009-04-17",40.28,27.86,1.00,,
"SWE00140622","2009-04-18",35.24,21.74,0.00,,
"SWE00140622","2009-04-19",39.74,19.40,6.00,,
"SWE00140622","2009-04-20",39.92,24.26,0.00,,
"SWE00140622","2009-04-21",37.94,20.66,0.00,,
"SWE00140622","2009-04-22",39.92,19.94,0.00,,
"SWE00140622","2009-04-23",52.88,26.06,0.00,,
"SWE00140622","2009-04-24",42.08,29.12,0.00,,
"SWE00140622","2009-04-25",47.66,28.76,0.00,,
"SWE00140622","2009-04-26",44.78,35.78,0.00,,
"SWE00140622","2009-04-27",46.94,30.56,116.00,,
"SWE00140622","2009-04-28",41.00,35.42,0.00,,
"SWE00140622","2009-04-29",49.46,33.08,2.00,,
"SWE00140622","2009-04-30",44.78,29.30,0.00,,
"SWE00140622","2009-05-01",46.94,28.58,0.00,,
"SWE00140622","2009-05-02",50.54,27.86,0.00,,
"SWE00140622","2009-05-03",47.84,34.16,0.00,,
"SWE00140622","2009-05-04",53.06,28.40,5.00,,
"SWE00140622","2009-05-05",50.18,37.58,1.00,,
"SWE00140622","2009-05-06",47.30,33.62,30.00,,
"SWE00140622","2009-05-07",42.26,33.08,20.00,,
"SWE00140622","2009-05-08",48.20,33.44,8.00,,
"SWE00140622","2009-05-09",45.68,33.62,315.00,,
"SWE00140622","2009-05-10",45.32,35.60,0.00,,
"SWE00140622","2009-05-11",57.56,28.76,0.00,,
"SWE00140622","2009-05-12",57.56,37.76,0.00,,
"SWE00140622","2009-05-13",55.40,38.30,0.00,,
"SWE00140622","2009-05-14",59.54,35.42,0.00,,
"SWE00140622","2009-05-15",66.02,40.46,0.00,,
"SWE00140622","2009-05-16",59.00,44.24,0.00,,
"SWE00140622","2009-05-17",60.08,36.68,0.00,,
"SWE00140622","2009-05-18",62.06,33.26,0.00,,
"SWE00140622","2009-05-19",59.36,30.56,0.00,,
"SWE00140622","2009-05-20",53.06,42.26,0.00,,
"SWE00140622","2009-05-21",54.50,39.56,0.00,,
"SWE00140622","2009-05-22",59.90,41.18,0.00,,
"SWE00140622","2009-05-23",65.66,44.60,74.00,,
"SWE00140622","2009-05-24",57.74,46.94,6.00,,
"SWE00140622","2009-05-25",55.94,45.32,0.00,,
"SWE00140622","2009-05-26",59.00,41.72,49.00,,
"SWE00140622","2009-05-27",56.30,45.14,24.00,,
"SWE00140622","2009-05-28",53.06,42.08,15.00,,
"SWE00140622","2009-05-29",53.42,39.38,0.00,,
"SWE00140622","2009-05-30",70.16,46.22,0.00,,
"SWE00140622","2009-05-31",66.02,47.84,0.00,,
"SWE00140622","2009-06-01",64.76,51.62,0.00,,
"SWE00140622","2009-06-02",56.30,32.72,0.00,,
"SWE00140622","2009-06-03",59.00,31.28,0.00,,
"SWE00140622","2009-06-04",56.48,44.06,0.00,,
"SWE00140622","2009-06-05",48.74,39.74,0.00,,
"SWE00140622","2009-06-06",48.38,35.96,12.00,,
"SWE00140622","2009-06-07",49.82,35.60,15.00,,
"SWE00140622","2009-06-08",51.62,38.66,0.00,,
"SWE00140622","2009-06-09",57.56,35.24,0.00,,
"SWE00140622","2009-06-10",66.92,38.30,0.00,,
"SWE00140622","2009-06-11",63.14,50.00,0.00,,
"SWE00140622","2009-06-12",67.28,45.86,0.00,,
"SWE00140622","2009-06-13",69.98,52.16,0.00,,
"SWE00140622","2009-06-14",63.68,55.58,50.00,,
"SWE00140622","2009-06-15",68.72,52.16,0.00,,
"SWE00140622","2009-06-16",57.20,49.82,1.00,,
"SWE00140622","2009-06-17",59.00,46.40,0.00,,
"SWE00140622","2009-06-18",56.66,39.74,0.00,,
"SWE00140622","2009-06-19",57.56,47.48,0.00,,
"SWE00140622","2009-06-20",62.42,42.44,0.00,,
"SWE00140622","2009-06-21",64.04,41.72,0.00,,
"SWE00140622","2009-06-22",62.24,46.04,0.00,,
"SWE00140622","2009-06-23",62.42,51.26,0.00,,
"SWE00140622","2009-06-24",71.78,43.52,0.00,,
"SWE00140622","2009-06-25",69.98,47.30,0.00,,
"SWE00140622","2009-06-26",72.14,53.60,0.00,,
"SWE00140622","2009-06-27",71.24,57.56,0.00,,
"SWE00140622","2009-06-28",77.72,55.22,0.00,,
"SWE00140622","2009-06-29",66.56,51.80,0.00,,
"SWE00140622","2009-06-30",67.10,46.58,0.00,,
"SWE00140622","2009-07-01",76.10,51.44,0.00,,
"SWE00140622","2009-07-02",71.60,53.60,0.00,,
"SWE00140622","2009-07-03",62.96,47.66,0.00,,
"SWE00140622","2009-07-04",55.58,40.82,1.00,,
"SWE00140622","2009-07-05",57.92,43.16,2.00,,
"SWE00140622","2009-07-06",54.50,46.76,2.00,,
"SWE00140622","2009-07-07",56.66,39.20,2.00,,
"SWE00140622","2009-07-08",65.66,48.20,1.00,,
"SWE00140622","2009-07-09",70.88,49.64,61.00,,
"SWE00140622","2009-07-10",71.78,59.36,0.00,,
"SWE00140622","2009-07-11",69.08,49.64,0.00,,
"SWE00140622","2009-07-12",65.66,46.58,11.00,,
"SWE00140622","2009-07-13",66.56,54.68,0.00,,
"SWE00140622","2009-07-14",66.74,51.26,0.00,,
"SWE00140622","2009-07-15",67.46,55.22,1.00,,
"SWE00140622","2009-07-16",66.20,51.98,28.00,,
"SWE00140622","2009-07-17",69.62,53.78,75.00,,
"SWE00140622","2009-07-18",64.58,45.50,0.00,,
"SWE00140622","2009-07-19",68.00,47.12,0.00,,
"SWE00140622","2009-07-20",72.86,44.24,22.00,,
"SWE00140622","2009-07-21",70.34,56.30,37.00,,
"SWE00140622","2009-07-22",67.10,44.42,0.00,,
"SWE00140622","2009-07-23",70.88,50.36,0.00,,
"SWE00140622","2009-07-24",76.46,54.50,0.00,,
"SWE00140622","2009-07-25",80.06,61.16,0.00,,
"SWE00140622","2009-07-26",73.58,56.66,26.00,,
"SWE00140622","2009-07-27",75.74,55.76,137.00,,
"SWE00140622","2009-07-28",65.66,57.74,3.00,,
"SWE00140622","2009-07-29",67.10,57.74,0.00,,
"SWE00140622","2009-07-30",72.14,50.90,0.00,,
"SWE00140622","2009-07-31",77.54,47.30,1.00,,
"SWE00140622","2009-08-01",77.18,61.88,0.00,,
"SWE00140622","2009-08-02",78.80,57.02,0.00,,
"SWE00140622","2009-08-03",75.02,51.80,0.00,,
"SWE00140622","2009-08-04",72.32,51.98,0.00,,
"SWE00140622","2009-08-05",70.88,45.14,0.00,,
"SWE00140622","2009-08-06",71.24,43.16,0.00,,
"SWE00140622","2009-08-07",73.76,47.12,0.00,,
"SWE00140622","2009-08-08",72.14,50.54,0.00,,
"SWE00140622","2009-08-09",72.50,64.58,14.00,,
"SWE00140622","2009-08-10",71.96,60.98,0.00,,
"SWE00140622","2009-08-11",68.90,64.40,0.00,,
"SWE00140622","2009-08-12",66.20,56.48,53.00,,
"SWE00140622","2009-08-13",66.56,52.16,5.00,,
"SWE00140622","2009-08-14",62.96,46.58,0.00,,
"SWE00140622","2009-08-15",63.86,39.74,0.00,,
"SWE00140622","2009-08-16",64.40,37.58,47.00,,
"SWE00140622","2009-08-17",57.92,48.20,0.00,,
"SWE00140622","2009-08-18",61.16,32.72,57.00,,
"SWE00140622","2009-08-19",60.62,45.86,0.00,,
"SWE00140622","2009-08-20",62.42,30.74,0.00,,
"SWE00140622","2009-08-21",64.40,56.12,0.00,,
"SWE00140622","2009-08-22",68.18,55.94,0.00,,
"SWE00140622","2009-08-23",63.50,51.98,1.00,,
"SWE00140622","2009-08-24",63.86,43.88,0.00,,
"SWE00140622","2009-08-25",65.84,44.96,0.00,,
"SWE00140622","2009-08-26",65.30,42.08,0.00,,
"SWE00140622","2009-08-27",68.54,46.40,4.00,,
"SWE00140622","2009-08-28",65.12,53.78,3.00,,
"SWE00140622","2009-08-29",61.52,54.86,233.00,,
"SWE00140622","2009-08-30",61.70,53.78,111.00,,
"SWE00140622","2009-08-31",60.98,52.34,1.00,,
"SWE00140622","2009-09-01",63.86,56.48,0.00,,
"SWE00140622","2009-09-02",61.34,57.74,60.00,,
"SWE00140622","2009-09-03",60.26,55.22,0.00,,
"SWE00140622","2009-09-04",61.52,50.18,133.00,,
"SWE00140622","2009-09-05",58.28,56.12,1.00,,
"SWE00140622","2009-09-06",61.52,54.50,0.00,,
"SWE00140622","2009-09-07",61.16,50.18,44.00,,
"SWE00140622","2009-09-08",61.70,49.28,9.00,,
"SWE00140622","2009-09-09",61.52,55.94,0.00,,
"SWE00140622","2009-09-10",64.58,50.36,0.00,,
"SWE00140622","2009-09-11",57.56,33.08,2.00,,
"SWE00140622","2009-09-12",57.56,42.08,0.00,,
"SWE00140622","2009-09-13",58.64,33.62,0.00,,
"SWE00140622","2009-09-14",62.96,34.70,0.00,,
"SWE00140622","2009-09-15",60.44,38.30,0.00,,
"SWE00140622","2009-09-16",57.02,43.52,22.00,,
"SWE00140622","2009-09-17",54.32,38.30,2.00,,
"SWE00140622","2009-09-18",49.46,30.92,0.00,,
"SWE00140622","2009-09-19",56.66,40.28,0.00,,
"SWE00140622","2009-09-20",60.62,43.34,0.00,,
"SWE00140622","2009-09-21",55.76,39.74,0.00,,
"SWE00140622","2009-09-22",57.56,43.16,84.00,,
"SWE00140622","2009-09-23",59.00,45.68,0.00,,
"SWE00140622","2009-09-24",53.06,38.48,0.00,,
"SWE00140622","2009-09-25",52.52,27.14,48.00,,
"SWE00140622","2009-09-26",60.62,47.48,16.00,,
"SWE00140622","2009-09-27",60.62,49.46,0.00,,
"SWE00140622","2009-09-28",49.64,35.06,20.00,,
"SWE00140622","2009-09-29",47.30,27.68,0.00,,
"SWE00140622","2009-09-30",45.86,28.94,0.00,,
"SWE00140622","2009-10-01",45.32,24.80,0.00,,
"SWE00140622","2009-10-02",45.32,22.64,0.00,,
"SWE00140622","2009-10-03",41.00,18.86,35.00,,
"SWE00140622","2009-10-04",41.90,31.64,26.00,,
"SWE00140622","2009-10-05",38.30,32.54,5.00,,
"SWE00140622","2009-10-06",41.54,25.16,54.00,,
"SWE00140622","2009-10-07",43.88,23.72,183.00,,
"SWE00140622","2009-10-08",40.46,31.10,0.00,,
"SWE00140622","2009-10-09",41.36,24.62,0.00,,
"SWE00140622","2009-10-10",40.28,25.88,0.00,,
"SWE00140622","2009-10-11",39.38,15.80,0.00,,
"SWE00140622","2009-10-12",29.84,15.80,0.00,,
"SWE00140622","2009-10-13",33.80,20.30,0.00,,
"SWE00140622","2009-10-14",39.02,15.26,0.00,,
"SWE00140622","2009-10-15",46.04,38.30,61.00,,
"SWE00140622","2009-10-16",41.72,35.96,77.00,,
"SWE00140622","2009-10-17",38.30,26.42,0.00,,
"SWE00140622","2009-10-18",36.68,22.82,4.00,,
"SWE00140622","2009-10-19",36.68,31.82,40.00,,
"SWE00140622","2009-10-20",38.30,30.74,0.00,,
"SWE00140622","2009-10-21",40.82,26.06,0.00,,
"SWE00140622","2009-10-22",38.12,33.08,5.00,,
"SWE00140622","2009-10-23",34.52,29.66,4.00,,
"SWE00140622","2009-10-24",32.00,29.30,0.00,,
"SWE00140622","2009-10-25",36.14,30.02,3.00,,
"SWE00140622","2009-10-26",37.04,33.44,0.00,,
"SWE00140622","2009-10-27",33.44,31.46,6.00,,
"SWE00140622","2009-10-28",32.90,26.42,0.00,,
"SWE00140622","2009-10-29",31.28,19.04,0.00,,
"SWE00140622","2009-10-30",29.84,13.82,0.00,,
"SWE00140622","2009-10-31",36.86,13.64,0.00,,
"SWE00140622","2009-11-01",38.48,34.70,0.00,,
"SWE00140622","2009-11-02",40.64,36.68,0.00,,
"SWE00140622","2009-11-03",41.00,37.94,0.00,,
"SWE00140622","2009-11-04",41.00,28.76,0.00,,
"SWE00140622","2009-11-05",29.12,23.54,0.00,,
"SWE00140622","2009-11-06",32.54,29.12,17.00,,
"SWE00140622","2009-11-07",31.64,26.60,22.00,,
"SWE00140622","2009-11-08",34.34,29.30,2.00,,
"SWE00140622","2009-11-09",35.60,28.40,0.00,,
"SWE00140622","2009-11-10",33.80,28.76,3.00,,
"SWE00140622","2009-11-11",33.80,23.54,1.00,,
"SWE00140622","2009-11-12",24.44,16.16,1.00,,
"SWE00140622","2009-11-13",25.70,16.34,0.00,,
"SWE00140622","2009-11-14",32.00,24.62,29.00,,
"SWE00140622","2009-11-15",33.80,26.78,65.00,,
"SWE00140622","2009-11-16",37.58,33.80,26.00,,
"SWE00140622","2009-11-17",36.86,32.00,0.00,,
"SWE00140622","2009-11-18",34.52,32.72,3.00,,
"SWE00140622","2009-11-19",33.98,32.72,4.00,,
"SWE00140622","2009-11-20",34.70,32.36,100.00,,
"SWE00140622","2009-11-21",37.04,28.58,4.00,,
"SWE00140622","2009-11-22",33.62,24.26,40.00,,
"SWE00140622","2009-11-23",38.12,31.28,67.00,,
"SWE00140622","2009-11-24",38.84,36.50,22.00,,
"SWE00140622","2009-11-25",38.66,34.52,53.00,,
"SWE00140622","2009-11-26",38.48,32.54,88.00,,
"SWE00140622","2009-11-27",40.10,38.48,8.00,,
"SWE00140622","2009-11-28",39.20,28.94,0.00,,
"SWE00140622","2009-11-29",30.74,17.06,0.00,,
"SWE00140622","2009-11-30",34.52,14.72,277.00,,
"SWE00140622","2009-12-01",39.20,21.02,16.00,,
"SWE00140622","2009-12-02",34.16,22.64,0.00,,
"SWE00140622","2009-12-03",25.16,12.92,0.00,,
"SWE00140622","2009-12-04",22.82,14.00,7.00,,
"SWE00140622","2009-12-05",33.26,16.52,49.00,,
"SWE00140622","2009-12-06",34.70,32.18,1.00,,
"SWE00140622","2009-12-07",34.70,31.82,0.00,,
"SWE00140622","2009-12-08",36.14,34.52,7.00,,
"SWE00140622","2009-12-09",36.50,35.24,1.00,,
"SWE00140622","2009-12-10",36.14,34.34,0.00,,
"SWE00140622","2009-12-11",34.70,23.72,0.00,,
"SWE00140622","2009-12-12",26.78,20.30,0.00,,
"SWE00140622","2009-12-13",30.38,5.72,0.00,,
"SWE00140622","2009-12-14",8.60,1.40,7.00,,
"SWE00140622","2009-12-15",9.68,-5.98,3.00,,
"SWE00140622","2009-12-16",4.46,-7.60,0.00,,
"SWE00140622","2009-12-17",3.92,-9.94,0.00,,
"SWE00140622","2009-12-18",13.64,1.94,6.00,,
"SWE00140622","2009-12-19",28.76,2.12,64.00,,
"SWE00140622","2009-12-20",28.58,4.10,0.00,,
"SWE00140622","2009-12-21",17.78,4.10,72.00,,
"SWE00140622","2009-12-22",15.80,-2.02,13.00,,
"SWE00140622","2009-12-23",23.36,-3.10,72.00,,
"SWE00140622","2009-12-24",21.02,1.76,2.00,,
"SWE00140622","2009-12-25",1.76,-13.54,0.00,,
"SWE00140622","2009-12-26",3.74,-11.02,0.00,,
"SWE00140622","2009-12-27",14.18,2.66,46.00,,
"SWE00140622","2009-12-28",14.72,2.30,66.00,,
"SWE00140622","2009-12-29",28.58,10.76,36.00,,
"SWE00140622","2009-12-30",18.50,9.86,9.00,,
"SWE00140622","2009-12-31",16.88,12.92,5.00,,
"SWE00140622","2010-01-01",14.00,3.38,3.00,,
"SWE00140622","2010-01-02",7.34,-13.18,7.00,,
"SWE00140622","2010-01-03",15.80,-10.66,40.00,,
"SWE00140622","2010-01-04",8.78,-0.04,0.00,,
"SWE00140622","2010-01-05",1.76,-8.50,7.00,,
"SWE00140622","2010-01-06",1.58,-8.14,5.00,,
"SWE00140622","2010-01-07",-8.14,-24.34,1.00,,
"SWE00140622","2010-01-08",-12.46,-24.34,0.00,,
"SWE00140622","2010-01-09",-1.84,-19.12,0.00,,
"SWE00140622","2010-01-10",29.12,-5.80,0.00,,
"SWE00140622","2010-01-11",31.46,11.66,0.00,,
"SWE00140622","2010-01-12",31.64,7.34,0.00,,
"SWE00140622","2010-01-13",8.06,-2.02,0.00,,
"SWE00140622","2010-01-14",22.46,1.22,4.00,,
"SWE00140622","2010-01-15",13.64,0.32,2.00,,
"SWE00140622","2010-01-16",26.06,13.64,0.00,,
"SWE00140622","2010-01-17",29.30,18.86,6.00,,
"SWE00140622","2010-01-18",27.50,18.14,3.00,,
"SWE00140622","2010-01-19",20.30,10.04,2.00,,
"SWE00140622","2010-01-20",27.14,18.68,0.00,,
"SWE00140622","2010-01-21",22.64,3.20,2.00,,
"SWE00140622","2010-01-22",3.38,-5.98,3.00,,
"SWE00140622","2010-01-23",1.94,-7.96,6.00,,
"SWE00140622","2010-01-24",13.28,-1.12,2.00,,
"SWE00140622","2010-01-25",22.10,13.28,4.00,,
"SWE00140622","2010-01-26",23.36,20.30,0.00,,
"SWE00140622","2010-01-27",21.02,12.74,11.00,,
"SWE00140622","2010-01-28",12.74,-8.50,7.00,,
"SWE00140622","2010-01-29",-0.94,-11.38,10.00,,
"SWE00140622","2010-01-30",5.72,-4.00,16.00,,
"SWE00140622","2010-01-31",13.10,0.68,59.00,,
"SWE00140622","2010-02-01",22.10,-2.20,27.00,,
"SWE00140622","2010-02-02",25.70,-4.54,61.00,,
"SWE00140622","2010-02-03",24.08,2.84,1.00,,
"SWE00140622","2010-02-04",12.56,-8.32,26.00,,
"SWE00140622","2010-02-05",15.80,4.46,31.00,,
"SWE00140622","2010-02-06",27.50,2.84,8.00,,
"SWE00140622","2010-02-07",20.12,1.22,15.00,,
"SWE00140622","2010-02-08",15.44,4.64,18.00,,
"SWE00140622","2010-02-09",16.88,11.66,6.00,,
"SWE00140622","2010-02-10",13.82,3.38,10.00,,
"SWE00140622","2010-02-11",15.98,6.08,34.00,,
"SWE00140622","2010-02-12",7.34,-15.70,0.00,,
"SWE00140622","2010-02-13",21.38,6.44,3.00,,
"SWE00140622","2010-02-14",21.92,-0.22,0.00,,
"SWE00140622","2010-02-15",27.50,10.04,0.00,,
"SWE00140622","2010-02-16",17.60,3.38,0.00,,
"SWE00140622","2010-02-17",5.00,-9.22,0.00,,
"SWE00140622","2010-02-18",-4.72,-14.80,0.00,,
"SWE00140622","2010-02-19",1.40,-16.06,0.00,,
"SWE00140622","2010-02-20",-3.28,-22.18,0.00,,
"SWE00140622","2010-02-21",2.84,-20.02,39.00,,
"SWE00140622","2010-02-22",6.62,-2.74,8.00,,
"SWE00140622","2010-02-23",0.68,-9.22,8.00,,
"SWE00140622","2010-02-24",4.82,-10.66,12.00,,
"SWE00140622","2010-02-25",-4.36,-20.20,0.00,,
"SWE00140622","2010-02-26",13.28,-16.96,41.00,,
"SWE00140622","2010-02-27",25.16,13.28,57.00,,
"SWE00140622","2010-02-28",23.18,14.90,105.00,,
"SWE00140622","2010-03-01",22.10,16.34,116.00,,
"SWE00140622","2010-03-02",24.80,20.30,70.00,,
"SWE00140622","2010-03-03",27.14,23.18,11.00,,
"SWE00140622","2010-03-04",25.52,14.36,0.00,,
"SWE00140622","2010-03-05",23.90,3.02,0.00,,
"SWE00140622","2010-03-06",25.88,7.88,0.00,,
"SWE00140622","2010-03-07",28.22,1.22,9.00,,
"SWE00140622","2010-03-08",42.08,26.24,0.00,,
"SWE00140622","2010-03-09",31.46,18.50,3.00,,
"SWE00140622","2010-03-10",30.20,11.48,20.00,,
"SWE00140622","2010-03-11",28.58,17.96,4.00,,
"SWE00140622","2010-03-12",23.18,-0.94,0.00,,
"SWE00140622","2010-03-13",20.84,-7.42,0.00,,
"SWE00140622","2010-03-14",21.74,-0.40,0.00,,
"SWE00140622","2010-03-15",20.30,-7.24,0.00,,
"SWE00140622","2010-03-16",11.84,-9.22,1.00,,
"SWE00140622","2010-03-17",14.72,-14.26,1.00,,